Find Starlink 31485

NORAD ID: 59308 Int'l Des: 2024-056 Owner: SPXS Country: US Constellation: starlink operational
LEOCIRCULAR

实时位置

正在加载3D地球...

关于 Starlink 31485

正在加载描述...

即将过境

Passes for default location (London). Set your location on the main map for personalized predictions.

高度历史

Loading altitude history...

两行轨道根数

1 59308U 24056N 26133.24164674 -.00022476 00000-0 -80753-3 0 9990
2 59308 43.0047 226.4171 0001715 280.0492 80.0166 15.27666575121024
Epoch: May 13, 2026 • Age: 6 hours

当前状态

高度 482.7 km
速度 7.63 km/s
星下点 -2.71°S, 169.9°E
发射日期 Mar 24, 2024
运行时间 2.1 years
类型 internet

技术详情

分类 Payload
质量 730.00 kg
干质量 700.00 kg
总质量 730.00 kg
长度 0.30 m
直径 4.10 m
跨度 29.00 m
形状 Box + pan
制造商 SPXS
平台类型 Starlink V2M
阶段状态 In Orbit
所有者/国家 SPXS/US

Most Searched